1491732001.26,27121,12.44,74188.8,23.05,-16.09,-17.03,0,*45
1491732002.47,27122,12.44,74186.5,23.05,-15.75,-16.75,0,*4E
1491732003.7,27123,12.44,74188.3,23.05,-16.97,-18.01,0,*4D
1491732004.95,27124,12.44,74186.0,23.05,-16.23,-17.25,0,*4C
1491732006.18,27125,12.44,74188.3,23.05,-16.03,-17.03,0,*4B
1491732007.43,27126,12.44,74186.5,23.07,-15.49,-16.51,0,*41
1491732008.68,27127,12.44,74190.0,23.07,-15.89,-16.93,0,*42
1491732009.91,27128,12.44,74184.3,23.05,-16.69,-17.73,0,*4D
1491732011.17,27129,12.44,74190.8,23.05,-19.65,-20.99,0,*4F
1491732012.41,27130,12.44,74186.8,23.03,-17.83,-18.89,0,*4D
1491732013.61,27131,12.44,74184.5,23.01,-18.41,-19.71,0,*49
1491732014.84,27132,12.44,74188.5,23.01,-20.39,-21.57,0,*41
1491732016.06,27133,12.44,74186.8,22.97,-20.29,-21.23,0,*4C
1491732017.3,27134,12.44,74186.3,22.93,-19.41,-20.63,0,*4E
1491732018.53,27135,12.44,74186.8,22.93,-17.21,-18.21,0,*4A
1491732019.76,27136,12.44,74186.0,22.89,-17.07,-18.11,0,*45
1491732020.99,27137,12.44,74188.8,22.93,-18.99,-20.35,0,*4A
1491732022.2,27138,12.44,74188.3,22.89,-18.25,-19.51,0,*41
1491732023.47,27139,12.44,74190.5,22.87,-17.55,-18.59,0,*4F
1491732024.73,27140,12.44,74184.5,22.87,-18.21,-19.41,0,*45
1491732025.98,27141,12.44,74184.5,22.87,-17.87,-18.93,0,*49
1491732027.21,27142,12.44,74190.5,22.85,-17.07,-18.17,0,*4C
1491732028.5,27143,12.44,74186.5,22.87,-17.11,-18.31,0,*4C
1491732029.77,27144,12.44,74188.0,22.87,-16.31,-17.21,0,*46
1491732031.0,27145,12.44,74188.8,22.89,-15.89,-16.93,0,*41
1491732032.26,27146,12.44,74190.3,22.89,-16.51,-17.63,0,*4A
1491732033.46,27147,12.44,74184.3,22.93,-15.95,-16.97,0,*41
1491732034.67,27148,12.44,74190.8,22.89,-16.93,-18.07,0,*47
1491732035.9,27149,12.44,74184.0,22.89,-17.25,-18.41,0,*48
1491732037.13,27150,12.44,74186.3,22.89,-17.93,-19.13,0,*4B
1491732038.37,27151,12.44,74190.3,22.89,-17.07,-18.11,0,*44
1491732039.65,27152,12.44,74184.3,22.87,-16.09,-17.11,0,*49
1491732040.89,27153,12.44,74186.8,22.89,-16.03,-17.07,0,*4B
1491732042.11,27154,12.44,74186.0,22.89,-15.75,-16.75,0,*4A
1491732043.34,27155,12.44,74186.5,22.89,-16.45,-17.55,0,*48
1491732044.6,27156,12.44,74188.5,22.89,-16.17,-17.21,0,*4F
1491732045.82,27157,12.44,74188.5,22.93,-17.63,-18.79,0,*45
1491732047.1,27158,12.44,74186.5,22.95,-16.27,-17.41,0,*49
1491732048.3,27159,12.44,74184.3,22.93,-15.95,-16.97,0,*4E
1491732049.54,27160,12.44,74186.8,22.95,-15.35,-16.37,0,*42
1491732050.82,27161,12.44,74186.5,22.95,-16.17,-17.45,0,*44
1491732052.03,27162,12.44,74184.0,22.97,-18.73,-19.99,0,*46
1491732053.26,27163,12.44,74190.5,22.95,-19.37,-20.63,0,*4B
1491732054.49,27164,12.44,74184.8,22.89,-17.63,-18.73,0,*44
1491732055.73,27165,12.44,74188.3,22.89,-16.27,-17.35,0,*49
1491732056.93,27166,12.44,74184.5,22.93,-16.59,-17.73,0,*4A
1491732058.16,27167,12.44,74184.3,22.89,-18.11,-19.23,0,*49
1491732059.38,27168,12.44,74188.3,22.89,-19.17,-20.39,0,*40
1491732060.63,27169,12.44,74190.5,22.87,-17.73,-18.89,0,*43
1491732061.85,27170,12.5,74190.3,22.87,-17.87,-19.07,0,*47
1491732063.08,27171,12.44,74186.0,22.87,-18.73,-19.95,0,*49
1491732064.31,27172,12.44,74184.3,22.83,-18.41,-19.61,0,*44
1491732065.52,27173,12.44,74186.0,22.83,-17.35,-18.49,0,*42
1491732066.74,27174,12.44,74186.5,22.83,-16.23,-17.31,0,*43
1491732067.97,27175,12.44,74186.0,22.85,-16.17,-17.31,0,*43
1491732069.19,27176,12.44,74184.3,22.83,-17.11,-18.17,0,*4A
1491732070.42,27177,12.44,74186.5,22.83,-16.27,-17.31,0,*44
1491732071.67,27178,12.44,74186.8,22.85,-15.35,-16.23,0,*4F
1491732072.95,27179,12.5,74188.8,22.87,-15.35,-16.23,0,*4C
1491732074.16,27180,12.44,74186.0,22.89,-14.69,-15.49,0,*43
1491732075.41,27181,12.44,74188.8,22.89,-14.97,-15.89,0,*4F
1491732076.63,27182,12.44,74184.0,22.89,-14.97,-15.99,0,*4D
1491732077.91,27183,12.44,74184.8,22.95,-14.79,-15.89,0,*40
1491732079.16,27184,12.44,74186.0,22.95,-15.15,-16.09,0,*47
1491732080.43,27185,12.44,74188.0,22.99,-15.21,-16.31,0,*46
1491732081.71,27186,12.44,74186.5,22.99,-15.35,-16.51,0,*46
1491732082.98,27187,12.44,74186.3,22.99,-14.97,-15.89,0,*48
1491732084.21,27188,12.5,74188.3,23.01,-15.07,-15.85,0,*43
1491732085.45,27189,12.44,74186.5,23.03,-14.93,-15.95,0,*4D
1491732086.68,27190,12.5,74186.3,23.03,-14.89,-15.75,0,*40
1491732087.91,27191,12.5,74186.3,23.05,-15.25,-16.51,0,*45
1491732089.18,27192,12.5,74188.8,23.07,-14.97,-15.89,0,*4A
1491732090.4,27193,12.5,74186.3,23.09,-15.11,-16.13,0,*4A
1491732091.65,27194,12.44,74186.5,23.07,-15.89,-16.97,0,*4E
1491732092.93,27195,12.44,74184.5,23.07,-15.57,-16.65,0,*41
1491732094.17,27196,12.5,74190.3,23.07,-15.21,-16.37,0,*44
1491732095.42,27197,12.5,74186.5,23.09,-14.93,-15.85,0,*49
1491732096.67,27198,12.5,74186.8,23.11,-15.25,-16.31,0,*4F
1491732097.91,27199,12.5,74188.3,23.11,-15.25,-16.31,0,*4E
1491732099.13,27200,12.5,74188.3,23.11,-15.99,-16.93,0,*42
1491732100.4,27201,12.5,74186.3,23.11,-14.79,-15.57,0,*47
1491732101.66,27202,12.5,74188.5,23.17,-14.75,-15.71,0,*4A
1491732102.9,27203,12.5,74190.8,23.15,-17.11,-18.17,0,*45
1491732104.16,27204,12.5,74188.0,23.17,-16.45,-17.55,0,*49
1491732105.39,27205,12.5,74188.3,23.17,-17.35,-18.45,0,*40
1491732106.68,27206,12.5,74190.5,23.17,-17.25,-18.31,0,*41
1491732107.93,27207,12.5,74186.8,23.15,-17.31,-18.31,0,*47
1491732109.13,27208,12.5,74184.3,23.09,-17.49,-18.83,0,*43
1491732110.39,27209,12.5,74186.5,23.09,-19.31,-20.53,0,*45
1491732111.6,27210,12.5,74188.5,23.05,-18.41,-19.47,0,*48
1491732112.83,27211,12.5,74190.8,23.09,-19.17,-20.35,0,*48
1491732114.05,27212,12.5,74184.8,23.05,-19.51,-20.89,0,*42
1491732115.29,27213,12.5,74188.8,23.01,-17.59,-18.55,0,*4B
1491732116.55,27214,12.5,74190.5,23.01,-16.65,-17.63,0,*48
1491732117.77,27215,12.5,74190.0,23.01,-16.89,-17.93,0,*44
1491732118.97,27216,12.5,74190.8,23.01,-16.59,-17.73,0,*44
1491732120.24,27217,12.5,74190.3,23.03,-16.27,-17.41,0,*4F
1491732121.51,27218,12.5,74188.5,23.03,-19.41,-20.79,0,*40
1491732122.76,27219,12.5,74188.5,22.99,-19.81,-21.09,0,*49
1491732124.0,27220,12.5,74188.0,22.97,-17.59,-18.59,0,*49
1491732125.25,27221,12.5,74186.5,22.97,-16.23,-17.25,0,*40
1491732126.51,27222,12.44,74186.0,22.97,-17.97,-18.93,0,*4F
1491732127.73,27223,12.5,74188.0,22.97,-17.73,-18.89,0,*4F
1491732128.94,27224,12.5,74184.8,22.97,-19.51,-20.93,0,*46
1491732130.14,27225,12.5,74188.3,22.93,-18.49,-19.47,0,*48
1491732131.37,27226,12.5,74190.8,22.95,-18.21,-19.37,0,*44
1491732132.64,27227,12.5,74186.8,22.93,-19.27,-20.53,0,*4C
1491732133.84,27228,12.5,74188.8,22.89,-18.45,-19.51,0,*45
1491732135.13,27229,12.5,74190.8,22.87,-21.03,-22.31,0,*4C
1491732136.38,27230,12.5,74186.8,22.83,-21.33,-22.73,0,*45
1491732137.58,27231,12.5,74190.5,22.79,-21.39,-22.63,0,*4A
1491732138.83,27232,12.5,74186.8,22.77,-20.93,-22.17,0,*45
1491732140.11,27233,12.5,74186.8,22.73,-19.81,-20.99,0,*4D
1491732141.35,27234,12.5,74188.3,22.73,-19.17,-20.25,0,*42
1491732142.58,27235,12.5,74186.5,22.71,-20.05,-21.27,0,*4B
1491732143.8,27236,12.5,74186.8,22.71,-18.11,-19.27,0,*4D
1491732145.03,27237,12.5,74186.8,22.71,-17.17,-18.25,0,*46
1491732146.24,27238,12.5,74188.0,22.71,-19.13,-20.43,0,*48
1491732147.5,27239,12.5,74190.5,22.65,-19.99,-21.27,0,*4D
1491732148.73,27240,12.5,74190.0,22.65,-18.21,-19.37,0,*4B
1491732149.99,27241,12.5,74188.5,22.67,-16.51,-17.55,0,*4B
1491732151.21,27242,12.5,74188.3,22.67,-16.31,-17.49,0,*43
1491732152.45,27243,12.5,74190.5,22.67,-16.65,-17.83,0,*45
1491732153.66,27244,12.5,74186.0,22.67,-16.45,-17.69,0,*44
1491732154.89,27245,12.5,74186.8,22.67,-16.17,-16.97,0,*42
1491732156.13,27246,12.5,74186.8,22.73,-15.71,-16.75,0,*4B
1491732157.38,27247,12.5,74188.0,22.73,-16.27,-17.31,0,*4B
1491732158.66,27248,12.5,74188.5,22.73,-16.27,-17.45,0,*47
1491732159.94,27249,12.5,74188.8,22.73,-20.19,-21.33,0,*4A
1491732161.14,27250,12.5,74188.5,22.71,-18.73,-19.75,0,*4E
1491732162.36,27251,12.5,74184.3,22.71,-16.89,-17.93,0,*42
1491732163.63,27252,12.5,74188.5,22.73,-16.55,-17.45,0,*49
1491732164.88,27253,12.5,74186.3,22.73,-16.31,-17.49,0,*46
1491732166.14,27254,12.5,74186.3,22.73,-15.57,-16.55,0,*4E
1491732167.39,27255,12.5,74186.3,22.75,-16.13,-17.25,0,*4C
1491732168.61,27256,12.5,74184.0,22.75,-17.59,-18.79,0,*46
1491732169.82,27257,12.5,74184.8,22.75,-18.21,-19.47,0,*4B
1491732171.02,27258,12.5,74188.3,22.75,-18.83,-19.71,0,*49
1491732172.25,27259,12.5,74186.3,22.71,-17.93,-18.99,0,*45
1491732173.45,27260,12.5,74184.5,22.71,-18.25,-19.47,0,*4F
1491732174.68,27261,12.5,74188.8,22.71,-16.55,-17.45,0,*4B
1491732175.94,27262,12.5,74186.5,22.73,-16.65,-17.83,0,*43
1491732177.17,27263,12.5,74186.8,22.71,-16.65,-17.69,0,*44
1491732178.44,27264,12.5,74184.8,22.73,-16.31,-17.35,0,*49
1491732179.69,27265,12.5,74184.5,22.75,-16.27,-17.45,0,*4E
1491732180.92,27266,12.5,74186.5,22.75,-16.37,-17.25,0,*4A
1491732182.15,27267,12.5,74186.0,22.77,-15.67,-16.79,0,*47
1491732183.41,27268,12.5,74188.0,22.75,-17.21,-18.35,0,*4C
1491732184.64,27269,12.5,74186.3,22.77,-16.45,-17.35,0,*43
1491732185.9,27270,12.5,74188.3,22.77,-15.29,-16.31,0,*47
1491732187.18,27271,12.5,74188.5,22.77,-16.17,-17.11,0,*4B
1491732188.42,27272,12.5,74186.0,22.81,-14.97,-16.03,0,*49
1491732189.64,27273,12.5,74184.3,22.81,-14.69,-15.63,0,*4C
1491732190.89,27274,12.5,74184.5,22.83,-15.57,-16.69,0,*4C
1491732192.11,27275,12.5,74188.3,22.83,-17.59,-18.65,0,*43
1491732193.31,27276,12.5,74184.8,22.83,-16.97,-18.17,0,*46
1491732194.52,27277,12.5,74188.5,22.83,-15.53,-16.55,0,*44
1491732195.77,27278,12.5,74186.5,22.83,-15.85,-17.03,0,*42
1491732196.97,27279,12.5,74184.8,22.83,-16.75,-18.17,0,*45
1491732198.2,27280,12.5,74186.0,22.83,-18.79,-19.85,0,*4B
1491732199.4,27281,12.5,74186.5,22.83,-18.41,-19.75,0,*4E
1491732200.63,27282,12.5,74186.0,22.81,-17.35,-18.41,0,*45
1491732201.84,27283,12.5,74190.0,22.79,-17.79,-18.79,0,*40
1491732203.1,27284,12.5,74186.8,22.81,-16.41,-17.41,0,*4E
1491732204.35,27285,12.5,74184.0,22.81,-15.57,-16.59,0,*43
1491732205.61,27286,12.5,74190.3,22.81,-15.99,-17.07,0,*48
1491732206.84,27287,12.5,74188.0,22.83,-16.59,-17.79,0,*4D
1491732208.09,27288,12.5,74188.5,22.83,-16.09,-17.17,0,*4F
1491732209.3,27289,12.5,74188.0,22.83,-15.67,-16.75,0,*40
1491732210.55,27290,12.5,74188.0,22.83,-15.39,-16.27,0,*44
1491732211.78,27291,12.5,74188.0,22.85,-15.07,-16.09,0,*42
1491732213.01,27292,12.5,74184.5,22.87,-15.67,-16.79,0,*42
1491732214.26,27293,12.5,74190.3,22.87,-15.49,-16.51,0,*45
1491732215.47,27294,12.5,74190.5,22.89,-15.71,-16.75,0,*41
1491732216.74,27295,12.5,74186.5,22.89,-15.35,-16.17,0,*44
1491732217.98,27296,12.5,74186.8,22.95,-15.21,-16.41,0,*4C
1491732219.2,27297,12.5,74186.3,22.95,-15.95,-16.93,0,*4D
1491732220.45,27298,12.5,74186.3,22.95,-15.25,-16.23,0,*42
1491732221.65,27299,12.5,74188.0,22.97,-15.25,-16.41,0,*45
1491732222.88,27300,12.5,74188.0,22.97,-16.03,-17.11,0,*47
1491732224.14,27301,12.5,74186.8,22.99,-15.15,-16.17,0,*4B
1491732225.42,27302,12.5,74188.0,22.99,-15.21,-16.17,0,*4F
1491732226.65,27303,12.5,74186.5,23.01,-15.57,-16.59,0,*45
1491732227.9,27304,12.5,74190.3,23.03,-15.07,-16.09,0,*40
1491732229.1,27305,12.5,74190.3,23.05,-14.65,-15.63,0,*4D
1491732230.35,27306,12.5,74184.5,23.03,-14.33,-15.21,0,*4D
1491732231.6,27307,12.56,74188.3,23.05,-14.79,-15.89,0,*46
1491732232.86,27308,12.5,74186.8,23.07,-15.85,-16.75,0,*49
1491732234.14,27309,12.5,74184.5,23.07,-15.85,-17.07,0,*4C
1491732235.37,27310,12.5,74186.3,23.07,-16.97,-18.11,0,*4C
1491732236.63,27311,12.5,74184.5,23.07,-14.83,-15.75,0,*45
1491732237.89,27312,12.5,74188.0,23.07,-14.33,-15.21,0,*4C
1491732239.12,27313,12.5,74184.8,23.09,-15.43,-16.55,0,*45
1491732240.39,27314,12.5,74186.5,23.11,-17.21,-18.35,0,*45
1491732241.63,27315,12.5,74190.0,23.11,-15.57,-16.45,0,*4E
1491732242.86,27316,12.5,74188.3,23.11,-15.29,-16.41,0,*40
1491732244.14,27317,12.5,74184.5,23.11,-15.85,-17.03,0,*40
1491732245.38,27318,12.5,74186.0,23.11,-14.83,-15.67,0,*48
1491732246.63,27319,12.5,74188.3,23.15,-15.49,-16.51,0,*4C
1491732247.88,27320,12.5,74188.8,23.15,-18.07,-19.27,0,*4F
1491732249.14,27321,12.5,74188.0,23.15,-16.79,-17.79,0,*4C
1491732250.39,27322,12.5,74184.3,23.15,-15.81,-16.83,0,*4F
1491732251.64,27323,12.56,74190.5,23.15,-15.95,-17.17,0,*47
1491732252.86,27324,12.5,74186.8,23.15,-15.75,-16.89,0,*48
1491732254.11,27325,12.5,74186.3,23.15,-16.51,-17.73,0,*48
1491732255.37,27326,12.5,74186.8,23.17,-17.07,-18.11,0,*40
1491732256.6,27327,12.5,74184.0,23.15,-15.53,-16.55,0,*4E
1491732257.87,27328,12.56,74190.0,23.17,-16.03,-17.07,0,*43
1491732259.11,27329,12.5,74184.5,23.17,-15.57,-16.45,0,*47
1491732260.38,27330,12.5,74184.0,23.17,-15.95,-17.07,0,*46
1491732261.61,27331,12.5,74186.5,23.17,-18.69,-19.99,0,*40
1491732262.86,27332,12.5,74186.0,23.15,-17.55,-18.65,0,*43
1491732264.11,27333,12.5,74188.0,23.15,-16.65,-17.49,0,*41
1491732265.37,27334,12.56,74190.5,23.15,-16.37,-17.55,0,*4C
1491732266.64,27335,12.5,74186.5,23.15,-16.51,-17.55,0,*4D
1491732267.88,27336,12.5,74184.8,23.15,-17.31,-18.59,0,*4A
1491732269.13,27337,12.5,74188.0,23.11,-16.93,-17.97,0,*4B
1491732270.35,27338,12.56,74188.5,23.15,-17.87,-19.07,0,*43
1491732271.6,27339,12.5,74186.8,23.11,-16.69,-17.83,0,*45
1491732272.83,27340,12.5,74184.5,23.11,-15.53,-16.59,0,*47
1491732274.09,27341,12.5,74190.0,23.17,-14.89,-15.89,0,*48
1491732275.36,27342,12.56,74188.0,23.17,-15.01,-16.17,0,*4E
1491732276.6,27343,12.5,74182.8,23.19,-14.83,-15.71,0,*49
1491732277.83,27344,12.5,74188.0,23.19,-14.65,-15.57,0,*42
1491732279.09,27345,12.5,74186.0,23.21,-15.43,-16.55,0,*4C
1491732280.35,27346,12.5,74186.5,23.21,-15.39,-16.55,0,*42
1491732281.6,27347,12.56,74188.5,23.23,-14.47,-15.49,0,*47
1491732282.81,27348,12.5,74188.3,23.23,-15.53,-16.75,0,*40
1491732284.07,27349,12.5,74184.8,23.25,-15.95,-17.21,0,*4D
1491732285.34,27350,12.5,74188.0,23.25,-16.31,-17.41,0,*4E
1491732286.57,27351,12.56,74188.3,23.23,-15.63,-16.69,0,*46
1491732287.8,27352,12.56,74190.5,23.23,-14.75,-15.67,0,*4E
1491732289.05,27353,12.5,74184.8,23.25,-15.29,-16.51,0,*47
1491732290.31,27354,12.5,74184.5,23.29,-15.29,-16.31,0,*4A
1491732291.57,27355,12.56,74190.0,23.29,-15.15,-16.17,0,*40
1491732292.83,27356,12.5,74184.8,23.29,-15.39,-16.41,0,*4E
1491732294.08,27357,12.56,74190.5,23.27,-14.97,-15.89,0,*43
1491732295.33,27358,12.56,74190.5,23.33,-15.07,-16.13,0,*41
1491732296.58,27359,12.56,74190.5,23.33,-14.97,-15.95,0,*45
1491732297.83,27360,12.56,74188.8,23.33,-14.83,-15.99,0,*46
1491732299.09,27361,12.5,74186.3,23.37,-14.89,-15.89,0,*48
1491732300.32,27362,12.56,74188.0,23.39,-14.61,-15.57,0,*40
1491732301.55,27363,12.56,74186.3,23.39,-15.15,-16.27,0,*47
1491732302.8,27364,12.5,74186.0,23.39,-15.43,-16.51,0,*42
1491732304.0,27365,12.5,74186.8,23.39,-15.75,-16.93,0,*48
1491732305.26,27366,12.56,74190.3,23.39,-15.39,-16.27,0,*4C
1491732306.51,27367,12.56,74186.8,23.41,-14.33,-15.21,0,*4C
1491732307.76,27368,12.56,74188.3,23.41,-14.33,-15.21,0,*43
1491732308.99,27369,12.56,74184.8,23.43,-15.07,-16.09,0,*4F
1491732310.23,27370,12.56,74186.5,23.43,-15.21,-16.27,0,*4F
1491732311.45,27371,12.56,74186.3,23.43,-15.39,-16.37,0,*46
1491732312.7,27372,12.5,74184.3,23.47,-16.23,-17.41,0,*49
1491732313.95,27373,12.56,74190.5,23.45,-15.67,-16.69,0,*42
1491732315.18,27374,12.56,74190.0,23.45,-15.29,-16.41,0,*45
1491732316.43,27375,12.56,74184.8,23.47,-14.75,-15.85,0,*45
1491732317.63,27376,12.56,74190.5,23.47,-14.89,-15.99,0,*48
1491732318.88,27377,12.56,74186.5,23.47,-15.43,-16.51,0,*49
1491732320.1,27378,12.56,74188.8,23.49,-14.79,-15.67,0,*46
1491732321.33,27379,12.56,74188.0,23.49,-14.79,-15.71,0,*40
1491732322.59,27380,12.56,74188.8,23.51,-14.23,-15.21,0,*45
1491732323.81,27381,12.56,74190.8,23.53,-14.37,-15.49,0,*4D
1491732325.05,27382,12.56,74190.3,23.53,-14.47,-15.53,0,*42
1491732326.32,27383,12.56,74188.3,23.55,-15.01,-16.17,0,*45
1491732327.57,27384,12.56,74186.0,23.55,-15.11,-16.13,0,*47
1491732328.79,27385,12.56,74188.3,23.57,-15.99,-17.07,0,*40
1491732330.04,27386,12.56,74188.5,23.55,-15.85,-16.89,0,*4B
1491732331.29,27387,12.56,74186.8,23.55,-15.49,-16.51,0,*4F
1491732332.49,27388,12.56,74184.8,23.53,-15.07,-16.03,0,*4B
1491732333.69,27389,12.56,74186.3,23.57,-15.29,-16.37,0,*45
1491732334.91,27390,12.56,74186.3,23.57,-16.03,-17.11,0,*43
1491732336.19,27391,12.56,74186.3,23.55,-15.89,-17.03,0,*42
1491732337.42,27392,12.56,74186.0,23.61,-15.57,-16.59,0,*4B
1491732338.65,27393,12.56,74186.8,23.61,-14.51,-15.67,0,*43
1491732339.86,27394,12.56,74186.3,23.61,-14.19,-15.11,0,*49
1491732341.13,27395,12.56,74186.0,23.63,-14.79,-15.89,0,*4D
1491732342.36,27396,12.56,74186.8,23.63,-15.49,-16.55,0,*4E
1491732343.61,27397,12.56,74186.8,23.63,-15.81,-16.83,0,*40
1491732344.85,27398,12.56,74184.5,23.65,-15.35,-16.51,0,*49
1491732346.1,27399,12.56,74188.3,23.63,-17.03,-18.41,0,*46
1491732347.35,27400,12.56,74186.3,23.63,-18.17,-19.41,0,*4A
1491732348.55,27401,12.56,74186.5,23.61,-17.87,-18.99,0,*4B
1491732349.77,27402,12.56,74184.0,23.57,-16.65,-17.69,0,*40
1491732351.03,27403,12.56,74190.0,23.57,-15.39,-16.17,0,*43
1491732352.25,27404,12.56,74184.0,23.61,-15.39,-16.55,0,*47
1491732353.48,27405,12.56,74186.5,23.61,-15.81,-16.89,0,*44
1491732354.71,27406,12.56,74188.8,23.61,-14.83,-15.95,0,*4A
1491732355.93,27407,12.56,74188.8,23.63,-14.89,-16.03,0,*4F
1491732357.19,27408,12.56,74186.8,23.63,-15.39,-16.79,0,*47
1491732358.41,27409,12.56,74186.8,23.65,-15.63,-16.65,0,*42
1491732359.62,27410,12.56,74186.8,23.67,-15.99,-16.89,0,*4F
1491732360.83,27411,12.56,74184.8,23.65,-17.79,-19.07,0,*49
1491732362.08,27412,12.56,74186.8,23.63,-18.73,-19.85,0,*43
1491732363.33,27413,12.56,74188.3,23.63,-17.59,-18.73,0,*4D
1491732364.56,27414,12.56,74186.3,23.57,-16.03,-17.03,0,*4B
1491732365.77,27415,12.56,74186.0,23.57,-15.01,-16.03,0,*4A
1491732367.03,27416,12.56,74188.3,23.61,-14.83,-15.81,0,*4E
1491732368.28,27417,12.56,74184.3,23.63,-14.89,-15.89,0,*4F
1491732369.54,27418,12.56,74184.3,23.67,-15.75,-17.07,0,*42
1491732370.78,27419,12.56,74186.5,23.63,-18.99,-20.43,0,*4C
1491732371.99,27420,12.56,74182.3,23.61,-19.13,-20.39,0,*4A
1491732373.24,27421,12.56,74190.3,23.57,-16.51,-17.63,0,*4C
1491732374.47,27422,12.56,74190.5,23.61,-16.79,-17.79,0,*4B
1491732375.67,27423,12.56,74190.0,23.57,-16.89,-17.83,0,*45
1491732376.92,27424,12.56,74188.3,23.57,-16.31,-17.41,0,*4F
1491732378.12,27425,12.56,74184.0,23.61,-17.49,-18.69,0,*40
1491732379.37,27426,12.56,74186.5,23.57,-16.23,-17.41,0,*4E
1491732380.59,27427,12.56,74188.3,23.57,-17.25,-18.41,0,*47
1491732381.8,27428,12.56,74188.8,23.61,-15.71,-16.75,0,*47
1491732383.03,27429,12.56,74184.8,23.57,-16.17,-17.35,0,*45
1491732384.24,27430,12.56,74188.5,23.57,-17.11,-18.25,0,*44
1491732385.47,27431,12.56,74188.0,23.57,-17.35,-18.55,0,*44
1491732386.71,27432,12.56,74190.5,23.57,-16.31,-17.25,0,*4A
1491732387.96,27433,12.56,74188.0,23.57,-18.31,-19.65,0,*4F
1491732389.17,27434,12.56,74186.5,23.57,-19.03,-20.43,0,*46
1491732390.4,27435,12.56,74190.3,23.53,-18.65,-19.81,0,*46
1491732391.65,27436,12.56,74184.0,23.49,-17.59,-18.93,0,*4C
1491732392.88,27437,12.56,74190.0,23.51,-16.41,-17.35,0,*4F
1491732394.16,27438,12.56,74186.5,23.51,-15.35,-16.27,0,*42
1491732395.39,27439,12.56,74186.0,23.53,-16.23,-17.31,0,*43
1491732396.67,27440,12.56,74188.5,23.55,-14.83,-15.85,0,*4E
1491732397.95,27441,12.56,74186.5,23.55,-14.83,-15.89,0,*43
1491732399.17,27442,12.56,74186.0,23.55,-15.71,-16.93,0,*44
1491732400.4,27443,12.56,74184.3,23.61,-15.43,-16.55,0,*49
1491732401.6,27444,12.56,74186.5,23.61,-17.87,-19.03,0,*48
1491732402.8,27445,12.56,74186.8,23.57,-18.73,-19.95,0,*47
1491732404.07,27446,12.56,74184.3,23.55,-16.31,-17.41,0,*49
1491732405.34,27447,12.56,74186.8,23.55,-15.43,-16.51,0,*4E
1491732406.58,27448,12.56,74184.5,23.57,-16.17,-17.35,0,*42
1491732407.77,27449,12.56,74188.3,23.61,-17.49,-18.79,0,*4B
1491732408.97,27450,12.56,74186.0,23.57,-18.25,-19.47,0,*4F
1491732410.17,27451,12.56,74184.8,23.53,-18.11,-19.47,0,*4D
1491732411.4,27452,12.56,74184.5,23.53,-16.97,-18.01,0,*4D
1491732412.6,27453,12.56,74188.3,23.53,-16.97,-18.17,0,*4B
1491732413.81,27454,12.56,74184.5,23.53,-16.83,-17.87,0,*4F
1491732415.02,27455,12.56,74186.0,23.53,-16.03,-16.97,0,*46
1491732416.27,27456,12.56,74186.3,23.55,-16.65,-17.69,0,*43
1491732417.53,27457,12.56,74188.8,23.53,-16.09,-17.11,0,*41
1491732418.76,27458,12.56,74184.3,23.53,-15.63,-16.65,0,*43
1491732420.01,27459,12.56,74188.0,23.55,-16.03,-17.11,0,*43
1491732421.26,27460,12.56,74186.8,23.55,-15.29,-16.31,0,*41
1491732422.49,27461,12.56,74188.0,23.61,-15.85,-16.83,0,*48
1491732423.76,27462,12.56,74184.3,23.61,-16.13,-17.07,0,*4A
1491732424.96,27463,12.56,74186.8,23.61,-15.71,-16.75,0,*48
1491732426.17,27464,12.56,74188.5,23.61,-15.95,-16.83,0,*4C
1491732427.42,27465,12.56,74190.5,23.61,-15.57,-16.69,0,*47
1491732428.62,27466,12.56,74188.5,23.61,-16.93,-18.11,0,*4E
1491732429.85,27467,12.56,74190.0,23.61,-19.13,-20.35,0,*45
1491732431.06,27468,12.56,74184.8,23.57,-18.99,-20.25,0,*4D
1491732432.26,27469,12.56,74184.0,23.57,-16.59,-17.69,0,*42
1491732433.51,27470,12.56,74186.0,23.57,-16.23,-17.25,0,*4F
1491732434.72,27471,12.56,74186.5,23.57,-15.49,-16.51,0,*43
1491732435.94,27472,12.56,74188.5,23.57,-15.43,-16.45,0,*4F
1491732437.16,27473,12.56,74186.0,23.57,-17.63,-18.73,0,*45
1491732438.39,27474,12.56,74190.0,23.57,-16.59,-17.97,0,*4F
1491732439.64,27475,12.56,74188.3,23.55,-18.11,-19.31,0,*4C
1491732440.85,27476,12.56,74188.3,23.53,-18.69,-20.05,0,*4B
1491732442.11,27477,12.56,74188.3,23.53,-18.89,-20.19,0,*49
1491732443.35,27478,12.56,74186.3,23.55,-17.69,-18.89,0,*43
1491732444.58,27479,12.56,74188.3,23.49,-18.07,-19.31,0,*4A
1491732445.83,27480,12.56,74188.5,23.49,-17.21,-18.35,0,*42
1491732447.05,27481,12.56,74186.8,23.49,-17.03,-18.25,0,*42
1491732448.28,27482,12.56,74184.3,23.47,-17.97,-19.37,0,*40
1491732449.51,27483,12.56,74184.3,23.45,-18.79,-19.99,0,*48
1491732450.73,27484,12.56,74186.8,23.47,-17.55,-18.83,0,*46
1491732451.98,27485,12.56,74184.0,23.45,-18.65,-19.85,0,*4E
1491732453.26,27486,12.56,74184.8,23.45,-16.51,-17.55,0,*47
1491732454.48,27487,12.56,74188.5,23.47,-15.39,-16.45,0,*49
1491732455.7,27488,12.63,74188.0,23.47,-18.21,-19.61,0,*4B
1491732456.96,27489,12.56,74188.8,23.45,-19.41,-20.73,0,*46
1491732458.2,27490,12.56,74184.3,23.41,-19.13,-20.39,0,*43
1491732459.43,27491,12.56,74186.8,23.41,-17.49,-18.69,0,*4D
1491732460.68,27492,12.56,74184.8,23.43,-16.23,-17.25,0,*46
1491732461.91,27493,12.56,74184.3,23.43,-16.41,-17.59,0,*48
1491732463.15,27494,12.56,74184.5,23.43,-16.23,-17.25,0,*40
1491732464.4,27495,12.56,74186.5,23.43,-15.21,-16.23,0,*47
1491732465.64,27496,12.56,74186.0,23.47,-16.27,-17.55,0,*45
1491732466.92,27497,12.56,74186.3,23.45,-18.01,-19.27,0,*47
1491732468.21,27498,12.56,74188.5,23.45,-16.09,-17.21,0,*46
1491732469.48,27499,12.56,74186.8,23.45,-16.31,-17.41,0,*4A
1491732470.73,27500,12.56,74186.5,23.47,-15.43,-16.51,0,*4F
1491732471.93,27501,12.56,74184.0,23.47,-15.63,-16.75,0,*4A
1491732473.16,27502,12.56,74186.5,23.47,-16.03,-17.07,0,*48
1491732474.36,27503,12.56,74182.3,23.47,-16.37,-17.49,0,*44
1491732475.57,27504,12.56,74186.3,23.49,-15.63,-16.59,0,*4F
1491732476.82,27505,12.56,74184.5,23.49,-15.43,-16.69,0,*4F
1491732478.06,27506,12.63,74188.0,23.51,-15.53,-16.59,0,*47
1491732479.31,27507,12.63,74188.0,23.51,-15.35,-16.41,0,*4F
1491732480.56,27508,12.63,74188.8,23.51,-15.43,-16.55,0,*44
1491732481.8,27509,12.56,74186.8,23.53,-16.41,-17.59,0,*4B
1491732483.03,27510,12.63,74188.3,23.53,-15.49,-16.51,0,*41
1491732484.25,27511,12.63,74188.8,23.53,-15.01,-16.03,0,*4B
1491732485.49,27512,12.56,74186.8,23.55,-14.97,-15.99,0,*40
1491732486.71,27513,12.63,74190.5,23.55,-14.61,-15.63,0,*4D
1491732487.94,27514,12.63,74188.5,23.57,-15.15,-16.13,0,*4E
1491732489.19,27515,12.56,74186.3,23.61,-14.79,-15.81,0,*49
1491732490.43,27516,12.56,74184.3,23.63,-14.15,-15.07,0,*4C
1491732491.64,27517,12.56,74186.0,23.65,-14.19,-15.29,0,*4B
1491732492.91,27518,12.56,74186.0,23.67,-14.97,-16.17,0,*4E
1491732494.12,27519,12.63,74190.3,23.69,-15.29,-16.45,0,*42
1491732495.4,27520,12.56,74184.5,23.67,-14.83,-15.89,0,*44
1491732496.6,27521,12.56,74184.0,23.69,-16.41,-17.49,0,*49
1491732497.84,27522,12.63,74186.5,23.69,-15.29,-16.17,0,*4D
1491732499.09,27523,12.63,74188.3,23.69,-14.93,-16.13,0,*48